This demonstration page uses our WeatherBlox Daily Observations layout. Learn more.

41.55636, -103.73856

Hourly Observations for August 26, 2015

Temp ( °F °C ) Dew Point ( °F °C ) Humidity (%) Winds ( mph kmh ) Pressure ( in mb ) Visibility ( mi km ) Precip ( " mm )
12:53 am 00:53 Clear 65 18.3 59 15 81 81 ESE 10 17 30 1016 10 16.0934 0 0
1:53 am 01:53 Clear 64 17.8 59 15 84 84 ESE 9 15 29.98 1015 10 16.0934 0 0
2:53 am 02:53 Clear 62 16.7 58 14.4 86 86 ESE 7 11 29.98 1015 10 16.0934 0 0
3:53 am 03:53 Clear 61 16.1 58 14.4 90 90 E 6 9 29.98 1015 10 16.0934 0 0
4:53 am 04:53 Clear 59 15 57 13.9 93 93 E 8 13 29.98 1015 9 14.48406 0 0
5:53 am 05:53 Clear 59 15 56 13.3 90 90 ESE 3 6 29.99 1016 8 12.87472 0 0
6:51 am 06:51 Sunny with Mist and Fog 57 14 55 13 94 94 Calm 30.03 1017 1.5 2.41401 0 0
6:53 am 06:53 Sunny with Mist and Fog 57 13.9 56 13.3 96 96 Calm 30.02 1017 0.75 1.207005 0 0
7:17 am 07:17 Mostly Cloudy with Mist and Fog 59 15 57 13.9 93 93 Calm 30 1016 1 1.60934 0 0
7:20 am 07:20 Partly Cloudy with Mist and Fog 61 16 57 14 88 88 Calm 30 1016 2.5 4.02335 0 0
7:27 am 07:27 Partly Cloudy with Mist and Fog 62 16.7 58 14.4 86 86 Calm 29.97 1015 5 8.0467 0 0
7:53 am 07:53 Sunny with Mist and Fog 62 16.7 59 15 90 90 ESE 6 9 30.02 1017 5 8.0467 0 0
8:53 am 08:53 Sunny 69 20.6 59 15 70 70 ESE 9 15 30.01 1016 9 14.48406 0 0
9:53 am 09:53 Sunny 75 23.9 59 15 58 58 ESE 9 15 29.99 1016 10 16.0934 0 0
10:53 am 10:53 Sunny 80 26.7 58 14.4 47 47 SSE 6 9 29.99 1016 10 16.0934 0 0
11:53 am 11:53 Sunny 84 28.9 59 15 43 43 E 8 13 29.96 1015 10 16.0934 0 0
12:53 pm 12:53 Sunny 89 31.7 58 14.4 35 35 E 8 13 29.93 1014 10 16.0934 0 0
1:53 pm 13:53 Sunny 93 33.9 59 15 32 32 E 9 15 29.91 1013 10 16.0934 0 0
2:53 pm 14:53 Sunny 95 35 59 15 30 30 E 9 15 29.88 1012 10 16.0934 0 0
3:53 pm 15:53 Sunny 97 36.1 56 13.3 25 25 E 9 15 29.84 1011 10 16.0934 0 0
4:53 pm 16:53 Sunny 96 35.6 50 10 21 21 SE 6 9 29.83 1010 10 16.0934 0 0
5:53 pm 17:53 Sunny 89 31.7 55 12.8 31 31 SSE 5 7 29.84 1011 9 14.48406 0 0
6:53 pm 18:53 Sunny 83 28.3 58 14.4 43 43 W 7 11 29.85 1011 10 16.0934 0 0
7:53 pm 19:53 Clear 79 26.1 58 14.4 49 49 ENE 9 15 29.86 1011 10 16.0934 0 0.0254
8:53 pm 20:53 Clear 76 24.4 56 13.3 50 50 NW 8 13 29.87 1012 10 16.0934 0 0
9:53 pm 21:53 Mostly Clear 79 26.1 48 8.9 34 34 NNE 10 17 29.85 1011 10 16.0934 0 0
10:53 pm 22:53 Clear 72 22.2 51 10.6 48 48 W 5 7 29.86 1011 10 16.0934 0 0
11:53 pm 23:53 Clear 65 18.3 54 12.2 68 68 undefined N/A 29.85 1011 10 16.0934 0 0

Powered by AerisWeather